Weather History for St. James, MN

Change the Weather History Date:

Sunday, March 3, 2013

  Actual Average Record
Temperature  
Mean Temperature 28 °F -  
Max Temperature 35 °F 35 °F 66 °F (1983)
Min Temperature 21 °F 17 °F -7 °F (2014)
Degree Days  
Heating Degree Days 37    
Moisture  
Dew Point 19 °F    
Average Humidity 66    
Maximum Humidity 80    
Minimum Humidity 51    
Precipitation  
Precipitation 0.00 in - - ()
Sea Level Pressure  
Sea Level Pressure 29.99 in    
Wind  
Wind Speed 10 mph (ESE)    
Max Wind Speed 22 mph    
Max Gust Speed 26 mph    
Visibility 9 miles    
Events Snow    
Averages and records for this station are not official NWS values.
T = Trace of Precipitation, MM = Missing Value Source: NWS Daily Summary

Daily Weather History Graph

Daily Weather History Graph

Search for Another Location

Airport:

Trip Planner

Search our weather history database for the weather conditions in past years. The results will help you decide how hot, cold, wet, or windy it might be!

Date:

Astronomy

Mar. 03, 2013 Rise Set
Actual Time 6:51 AM CST 6:09 PM CST
Civil Twilight 6:22 AM CST 6:38 PM CST
Nautical Twilight 5:49 AM CST 7:11 PM CST
Astronomical Twilight 5:15 AM CST 7:45 PM CST
Moon 12:02 AM CST (3/3) 9:53 AM CST (3/3)
Length of Visible Light 12h 16m
Length of Day
11h 18m
Waning Gibbous, 63% of the Moon is Illuminated
Mar 3
Waning Gibbous
Mar 4
Last Quarter
Mar 11
New
Mar 19
First Quarter
Mar 27
Full

Hourly Weather History & Observations

Time (CST) Temp. Windchill Dew Point Humidity Pressure Visibility Wind Dir Wind Speed Gust Speed Precip Events Conditions
12:15 AM 26.6 °F 19.1 °F 17.6 °F 69% 30.12 in 10.0 mi ESE 6.9 mph - N/A   Overcast
12:34 AM 26.6 °F 17.5 °F 17.6 °F 69% 30.11 in 10.0 mi ESE 9.2 mph - N/A   Overcast
12:55 AM 26.6 °F 22.6 °F 17.6 °F 69% 30.12 in 10.0 mi ESE 3.5 mph - N/A   Overcast
1:15 AM 26.6 °F 16.8 °F 17.6 °F 69% 30.10 in 10.0 mi ESE 10.4 mph - N/A   Overcast
1:35 AM 26.6 °F 17.5 °F 17.6 °F 69% 30.10 in 10.0 mi ESE 9.2 mph - N/A   Overcast
1:55 AM 26.6 °F 17.5 °F 17.6 °F 69% 30.10 in 10.0 mi ESE 9.2 mph - N/A   Overcast
2:15 AM 24.8 °F - 17.6 °F 74% 30.10 in 10.0 mi Calm Calm - N/A   Overcast
2:35 AM 24.8 °F - 17.6 °F 74% 30.09 in 10.0 mi Calm Calm - N/A   Overcast
2:55 AM 24.8 °F - 17.6 °F 74% 30.08 in 10.0 mi Calm Calm - N/A   Overcast
3:15 AM 26.6 °F - 17.6 °F 69% 30.07 in 10.0 mi Calm Calm - N/A   Overcast
3:35 AM 26.6 °F - 17.6 °F 69% 30.07 in 10.0 mi Calm Calm - N/A   Overcast
3:55 AM 26.6 °F - 17.6 °F 69% 30.06 in 10.0 mi Calm Calm - N/A   Overcast
4:15 AM 24.8 °F - 17.6 °F 74% 30.05 in 10.0 mi Calm Calm - N/A   Scattered Clouds
4:35 AM 24.8 °F - 17.6 °F 74% 30.06 in 10.0 mi Calm Calm - N/A   Clear
4:55 AM 24.8 °F - 17.6 °F 74% 30.05 in 10.0 mi Calm Calm - N/A   Clear
5:15 AM 24.8 °F - 17.6 °F 74% 30.06 in 10.0 mi Calm Calm - N/A   Clear
5:34 AM 23.0 °F - 17.6 °F 80% 30.06 in 10.0 mi Calm Calm - N/A   Clear
5:55 AM 23.0 °F - 17.6 °F 80% 30.06 in 10.0 mi Calm Calm - N/A   Clear
6:15 AM 23.0 °F - 17.6 °F 80% 30.06 in 10.0 mi Calm Calm - N/A   Clear
6:35 AM 21.2 °F 16.4 °F 15.8 °F 80% 30.06 in 10.0 mi East 3.5 mph - N/A   Clear
6:55 AM 21.2 °F 10.1 °F 15.8 °F 80% 30.05 in 10.0 mi ESE 10.4 mph - N/A   Scattered Clouds
7:15 AM 23.0 °F 12.4 °F 15.8 °F 74% 30.05 in 10.0 mi ESE 10.4 mph - N/A   Mostly Cloudy
7:35 AM 24.8 °F 14.6 °F 17.6 °F 74% 30.05 in 10.0 mi ESE 10.4 mph - N/A   Overcast
7:55 AM 24.8 °F 15.3 °F 17.6 °F 74% 30.05 in 10.0 mi ESE 9.2 mph - N/A   Overcast
8:14 AM 26.6 °F 16.2 °F 17.6 °F 69% 30.04 in 10.0 mi ESE 11.5 mph - N/A   Overcast
8:35 AM 26.6 °F 15.7 °F 19.4 °F 74% 30.04 in 10.0 mi ESE 12.7 mph - N/A   Overcast
8:55 AM 26.6 °F 14.7 °F 19.4 °F 74% 30.03 in 10.0 mi ESE 15.0 mph 19.6 mph N/A   Overcast
9:15 AM 28.4 °F 17.5 °F 19.4 °F 69% 30.03 in 10.0 mi ESE 13.8 mph - N/A   Overcast
9:35 AM 28.4 °F 17.5 °F 19.4 °F 69% 30.02 in 10.0 mi ESE 13.8 mph - N/A   Overcast
9:55 AM 30.2 °F 19.8 °F 19.4 °F 64% 30.02 in 10.0 mi ESE 13.8 mph - N/A   Scattered Clouds
10:15 AM 30.2 °F 18.9 °F 19.4 °F 64% 30.01 in 10.0 mi SE 16.1 mph - N/A   Clear
10:35 AM 30.2 °F 19.3 °F 19.4 °F 64% 30.01 in 10.0 mi ESE 15.0 mph - N/A   Clear
10:55 AM 32.0 °F 22.1 °F 19.4 °F 60% 30.01 in 10.0 mi SE 13.8 mph - N/A   Clear
11:15 AM 32.0 °F 22.1 °F 21.2 °F 64% 30.01 in 10.0 mi ESE 13.8 mph - N/A   Clear
11:35 AM 33.8 °F 23.5 °F 21.2 °F 60% 30.01 in 10.0 mi ESE 16.1 mph - N/A   Clear
11:55 AM 33.8 °F 23.2 °F 21.2 °F 60% 30.01 in 10.0 mi ESE 17.3 mph 21.9 mph N/A   Clear
12:15 PM 33.8 °F 22.8 °F 21.2 °F 60% 30.00 in 10.0 mi SE 18.4 mph - N/A   Clear
12:34 PM 33.8 °F 22.8 °F 21.2 °F 60% 29.99 in 10.0 mi ESE 18.4 mph - N/A   Clear
12:55 PM 33.8 °F 22.8 °F 21.2 °F 60% 29.98 in 10.0 mi SE 18.4 mph - N/A   Clear
1:15 PM 35.6 °F 26.2 °F 21.2 °F 56% 29.96 in 10.0 mi ESE 15.0 mph - N/A   Clear
1:34 PM 35.6 °F 25.9 °F 21.2 °F 56% 29.96 in 10.0 mi SE 16.1 mph - N/A   Clear
1:55 PM 35.6 °F 25.9 °F 21.2 °F 56% 29.95 in 10.0 mi ESE 16.1 mph - N/A   Clear
2:14 PM 35.6 °F 25.2 °F 21.2 °F 56% 29.94 in 10.0 mi SE 18.4 mph - N/A   Clear
2:35 PM 35.6 °F 24.8 °F 21.2 °F 56% 29.94 in 10.0 mi ESE 19.6 mph - N/A   Clear
2:55 PM 35.6 °F 25.5 °F 21.2 °F 56% 29.93 in 10.0 mi SE 17.3 mph 25.3 mph N/A   Clear
3:15 PM 35.6 °F 25.2 °F 21.2 °F 56% 29.93 in 10.0 mi SE 18.4 mph 23.0 mph N/A   Clear
3:54 PM 35.6 °F 25.9 °F 21.2 °F 56% 29.92 in 10.0 mi ESE 16.1 mph - N/A   Clear
4:15 PM 33.8 °F 23.5 °F 19.4 °F 56% 29.92 in 10.0 mi ESE 16.1 mph 24.2 mph N/A   Clear
4:35 PM 33.8 °F 23.9 °F 17.6 °F 52% 29.92 in 10.0 mi ESE 15.0 mph - N/A   Clear
4:55 PM 33.8 °F 23.5 °F 21.2 °F 60% 29.91 in 10.0 mi ESE 16.1 mph 20.7 mph N/A   Clear
5:15 PM 33.8 °F 23.9 °F 21.2 °F 60% 29.91 in 10.0 mi East 15.0 mph 21.9 mph N/A   Clear
5:35 PM 33.8 °F 23.2 °F 21.2 °F 60% 29.91 in 10.0 mi East 17.3 mph - N/A   Clear
5:55 PM 32.0 °F 20.5 °F 19.4 °F 60% 29.91 in 10.0 mi ESE 18.4 mph 25.3 mph N/A   Clear
6:15 PM 32.0 °F 20.1 °F 15.8 °F 51% 29.91 in 10.0 mi ESE 19.6 mph 25.3 mph N/A   Clear
6:35 PM 32.0 °F 20.1 °F 15.8 °F 51% 29.91 in 10.0 mi ESE 19.6 mph - N/A   Scattered Clouds
6:55 PM 30.2 °F 19.8 °F 19.4 °F 64% 29.92 in 10.0 mi ESE 13.8 mph 23.0 mph N/A   Clear
7:15 PM 30.2 °F 18.9 °F 17.6 °F 60% 29.92 in 10.0 mi East 16.1 mph - N/A   Clear
7:35 PM 30.2 °F 18.9 °F 17.6 °F 60% 29.92 in 10.0 mi ESE 16.1 mph - N/A   Scattered Clouds
7:55 PM 30.2 °F 17.8 °F 17.6 °F 60% 29.91 in 10.0 mi ESE 19.6 mph - N/A   Scattered Clouds
8:15 PM 30.2 °F 18.5 °F 17.6 °F 60% 29.92 in 10.0 mi ESE 17.3 mph - N/A   Scattered Clouds
8:35 PM 30.2 °F 18.5 °F 17.6 °F 60% 29.92 in 10.0 mi ESE 17.3 mph - N/A   Scattered Clouds
8:55 PM 30.2 °F 18.9 °F 15.8 °F 55% 29.91 in 10.0 mi ESE 16.1 mph 24.2 mph N/A   Mostly Cloudy
9:15 PM 30.2 °F 17.1 °F 14.0 °F 51% 29.91 in 10.0 mi ESE 21.9 mph - N/A   Mostly Cloudy
9:34 PM 30.2 °F 18.1 °F 15.8 °F 55% 29.91 in 10.0 mi ESE 18.4 mph - N/A Snow Light Snow
9:55 PM 28.4 °F 16.2 °F 19.4 °F 69% 29.91 in 2.5 mi ESE 17.3 mph - N/A Snow Light Snow
10:15 PM 28.4 °F 15.8 °F 19.4 °F 69% 29.92 in 2.0 mi ESE 18.4 mph 23.0 mph N/A Snow Light Snow
10:35 PM 28.4 °F 15.8 °F 21.2 °F 74% 29.93 in 1.8 mi ESE 18.4 mph - N/A Snow Light Snow
10:55 PM 26.6 °F 13.4 °F 21.2 °F 80% 29.92 in 1.2 mi ESE 18.4 mph - N/A Snow Light Snow
11:15 PM 26.6 °F 13.8 °F 21.2 °F 80% 29.91 in 1.0 mi ESE 17.3 mph 24.2 mph N/A Snow Snow
11:35 PM 26.6 °F 13.8 °F 21.2 °F 80% 29.91 in 1.2 mi ESE 17.3 mph 26.5 mph N/A Snow Light Snow
11:55 PM 26.6 °F 13.4 °F 21.2 °F 80% 29.91 in 1.5 mi ESE 18.4 mph 23.0 mph N/A Snow Light Snow